FDX1254 KBDL-KMEM

Flight info

Callsign FDX1254
Flight time 3h 0m
Altitude 32000
Route VEERS PWL BASYE DBABE Q406 BWZ J6 HVQ Q68 RAMRD BLUZZ5
Aircraft B752/M-VGDW/C

Departure

Time 2026-05-07 14:06
Airport Bradley International Airport (KBDL)

Arrival

Time 2026-05-07 17:06
Airport Memphis International Airport (KMEM)
Time Latitude Longitude Altitude Speed Heading
2026-05-07 13:43 41.94073 -72.69596 191 ft 0 kts 206°
2026-05-07 13:54 41.94078 -72.69592 190 ft 2 kts 202°
2026-05-07 13:54 41.94093 -72.69588 189 ft 2 kts 181°
2026-05-07 13:55 41.94108 -72.69590 189 ft 2 kts 165°
2026-05-07 13:55 41.94122 -72.69597 189 ft 2 kts 148°
2026-05-07 13:55 41.94133 -72.69610 190 ft 2 kts 132°
2026-05-07 13:55 41.94140 -72.69622 190 ft 0 kts 118°
2026-05-07 13:56 41.94143 -72.69630 190 ft 0 kts 116°
2026-05-07 13:58 41.94141 -72.69623 190 ft 3 kts 116°
2026-05-07 13:59 41.94117 -72.69559 189 ft 10 kts 117°
2026-05-07 13:59 41.94114 -72.69474 188 ft 9 kts 58°
2026-05-07 13:59 41.94123 -72.69402 188 ft 7 kts 124°
2026-05-07 13:59 41.94075 -72.69336 187 ft 12 kts 134°
2026-05-07 14:00 41.94004 -72.69237 187 ft 17 kts 134°
2026-05-07 14:00 41.93911 -72.69111 186 ft 19 kts 134°
2026-05-07 14:00 41.93818 -72.68983 186 ft 17 kts 134°
2026-05-07 14:00 41.93740 -72.68856 185 ft 17 kts 130°
2026-05-07 14:01 41.93686 -72.68749 186 ft 10 kts 79°
2026-05-07 14:01 41.93733 -72.68680 186 ft 10 kts 43°
2026-05-07 14:01 41.93797 -72.68600 186 ft 14 kts 42°
2026-05-07 14:01 41.93887 -72.68491 186 ft 19 kts 41°
2026-05-07 14:02 41.93987 -72.68370 186 ft 19 kts 41°
2026-05-07 14:02 41.94085 -72.68250 185 ft 18 kts 41°
2026-05-07 14:02 41.94185 -72.68135 184 ft 18 kts 43°
2026-05-07 14:02 41.94274 -72.68019 184 ft 17 kts 43°
2026-05-07 14:03 41.94363 -72.67905 183 ft 17 kts 44°
2026-05-07 14:03 41.94463 -72.67776 183 ft 21 kts 44°
2026-05-07 14:03 41.94572 -72.67633 182 ft 22 kts 43°
2026-05-07 14:03 41.94682 -72.67488 180 ft 22 kts 43°
2026-05-07 14:04 41.94792 -72.67342 177 ft 19 kts 44°
2026-05-07 14:04 41.94881 -72.67230 175 ft 17 kts 41°
2026-05-07 14:04 41.94955 -72.67144 172 ft 10 kts 19°
2026-05-07 14:04 41.95021 -72.67176 172 ft 10 kts 315°
2026-05-07 14:05 41.95043 -72.67248 173 ft 9 kts 250°
2026-05-07 14:05 41.94928 -72.67403 176 ft 52 kts 224°
2026-05-07 14:05 41.94464 -72.68008 184 ft 133 kts 225°
2026-05-07 14:05 41.93648 -72.69058 483 ft 181 kts 228°
2026-05-07 14:06 41.92672 -72.70250 1346 ft 202 kts 227°
2026-05-07 14:06 41.91617 -72.71497 2272 ft 209 kts 227°
2026-05-07 14:06 41.90415 -72.72878 2587 ft 244 kts 225°
2026-05-07 14:06 41.89074 -72.74355 3261 ft 262 kts 224°
2026-05-07 14:07 41.87638 -72.75982 3901 ft 279 kts 229°
2026-05-07 14:07 41.86380 -72.77917 4501 ft 266 kts 236°
2026-05-07 14:07 41.85247 -72.79810 4942 ft 266 kts 237°
2026-05-07 14:07 41.84261 -72.81793 6298 ft 252 kts 241°
2026-05-07 14:08 41.83318 -72.83729 7310 ft 253 kts 240°
2026-05-07 14:08 41.82371 -72.85635 8423 ft 248 kts 239°
2026-05-07 14:08 41.81426 -72.87535 9422 ft 246 kts 239°
2026-05-07 14:08 41.80506 -72.89372 10480 ft 242 kts 238°
2026-05-07 14:09 41.79535 -72.91314 10926 ft 261 kts 238°
2026-05-07 14:09 41.78485 -72.93408 11360 ft 279 kts 238°
2026-05-07 14:09 41.77375 -72.95613 11771 ft 296 kts 238°
2026-05-07 14:09 41.76201 -72.97948 12123 ft 314 kts 238°
2026-05-07 14:10 41.74937 -73.00453 12666 ft 325 kts 237°
2026-05-07 14:10 41.73693 -73.02916 13503 ft 326 kts 238°
2026-05-07 14:10 41.72420 -73.05434 14308 ft 328 kts 237°
2026-05-07 14:10 41.71140 -73.07965 15011 ft 333 kts 238°
2026-05-07 14:11 41.69850 -73.10513 15702 ft 337 kts 238°
2026-05-07 14:11 41.68523 -73.13138 16353 ft 341 kts 237°
2026-05-07 14:11 41.67208 -73.15731 17078 ft 343 kts 238°
2026-05-07 14:11 41.65869 -73.18372 17684 ft 347 kts 238°
2026-05-07 14:12 41.64500 -73.21067 18365 ft 349 kts 238°
2026-05-07 14:12 41.63135 -73.23756 19022 ft 351 kts 238°
2026-05-07 14:12 41.61778 -73.26422 19788 ft 350 kts 238°
2026-05-07 14:12 41.60420 -73.29089 20448 ft 350 kts 238°
2026-05-07 14:13 41.59061 -73.31757 21188 ft 349 kts 239°
2026-05-07 14:13 41.57690 -73.34446 21733 ft 352 kts 239°
2026-05-07 14:13 41.56318 -73.37135 22377 ft 352 kts 240°
2026-05-07 14:13 41.54956 -73.39802 23083 ft 349 kts 239°
2026-05-07 14:14 41.53603 -73.42448 23678 ft 349 kts 240°
2026-05-07 14:14 41.52240 -73.45116 24243 ft 348 kts 239°
2026-05-07 14:14 41.50877 -73.47778 24747 ft 349 kts 240°
2026-05-07 14:14 41.49512 -73.50440 25326 ft 348 kts 240°
2026-05-07 14:15 41.48160 -73.53077 25822 ft 349 kts 240°
2026-05-07 14:15 41.46788 -73.55750 26182 ft 352 kts 240°
2026-05-07 14:15 41.45418 -73.58416 26782 ft 349 kts 240°
2026-05-07 14:15 41.44045 -73.61088 27120 ft 352 kts 240°
2026-05-07 14:16 41.42670 -73.63759 27567 ft 352 kts 240°
2026-05-07 14:16 41.41277 -73.66462 28065 ft 351 kts 240°
2026-05-07 14:16 41.39892 -73.69146 28443 ft 353 kts 240°
2026-05-07 14:16 41.38512 -73.71823 28874 ft 353 kts 239°
2026-05-07 14:17 41.37122 -73.74511 29363 ft 352 kts 240°
2026-05-07 14:17 41.35756 -73.77151 29957 ft 348 kts 239°
2026-05-07 14:17 41.34374 -73.79730 30579 ft 345 kts 237°
2026-05-07 14:17 41.32757 -73.82170 30963 ft 348 kts 234°
2026-05-07 14:18 41.31181 -73.84506 31572 ft 343 kts 235°
2026-05-07 14:18 41.29592 -73.86867 31836 ft 345 kts 235°
2026-05-07 14:18 41.27982 -73.89250 31921 ft 342 kts 235°
2026-05-07 14:19 41.24817 -73.93926 31918 ft 341 kts 235°
2026-05-07 14:19 41.21638 -73.98611 31914 ft 339 kts 236°
2026-05-07 14:20 41.18479 -74.03255 31920 ft 342 kts 235°
2026-05-07 14:20 41.15295 -74.07931 31914 ft 342 kts 235°
2026-05-07 14:21 41.12584 -74.12974 31919 ft 336 kts 243°
2026-05-07 14:21 41.10126 -74.18220 31904 ft 334 kts 243°
2026-05-07 14:22 41.07688 -74.23415 31901 ft 333 kts 242°
2026-05-07 14:22 41.05244 -74.28613 32277 ft 335 kts 242°
2026-05-07 14:22 41.04003 -74.31251 32611 ft 335 kts 242°
2026-05-07 14:23 41.02775 -74.33854 33086 ft 332 kts 243°
2026-05-07 14:23 41.01572 -74.36405 33407 ft 332 kts 243°
2026-05-07 14:23 41.00351 -74.38995 33795 ft 329 kts 243°
2026-05-07 14:23 40.99136 -74.41570 34077 ft 330 kts 243°
2026-05-07 14:24 40.97931 -74.44122 34373 ft 330 kts 243°
2026-05-07 14:24 40.96710 -74.46702 34640 ft 331 kts 243°
2026-05-07 14:24 40.95502 -74.49256 34946 ft 330 kts 243°
2026-05-07 14:24 40.94286 -74.51823 35210 ft 330 kts 243°
2026-05-07 14:25 40.93075 -74.54377 35450 ft 330 kts 244°
2026-05-07 14:25 40.91851 -74.56960 35672 ft 330 kts 243°
2026-05-07 14:25 40.90649 -74.59491 35904 ft 326 kts 243°
2026-05-07 14:26 40.88231 -74.64578 35916 ft 330 kts 243°
2026-05-07 14:26 40.85792 -74.69698 35949 ft 332 kts 243°
2026-05-07 14:27 40.83390 -74.74734 35942 ft 330 kts 242°
2026-05-07 14:27 40.80947 -74.79845 35946 ft 330 kts 242°
2026-05-07 14:28 40.78545 -74.85027 35950 ft 331 kts 244°
2026-05-07 14:28 40.76201 -74.90221 35949 ft 327 kts 244°
2026-05-07 14:29 40.73980 -74.95131 35956 ft 330 kts 244°
2026-05-07 14:29 40.71652 -75.00269 35950 ft 327 kts 244°
2026-05-07 14:30 40.69472 -75.05077 35951 ft 330 kts 244°
2026-05-07 14:30 40.67118 -75.10257 35952 ft 329 kts 244°
2026-05-07 14:31 40.64791 -75.15365 35957 ft 328 kts 244°
2026-05-07 14:31 40.62518 -75.20355 35952 ft 329 kts 244°
2026-05-07 14:32 40.60170 -75.25496 35957 ft 327 kts 244°
2026-05-07 14:32 40.57830 -75.30611 35949 ft 328 kts 244°
2026-05-07 14:33 40.55475 -75.35748 35950 ft 328 kts 244°
2026-05-07 14:33 40.53132 -75.40854 35946 ft 327 kts 244°
2026-05-07 14:34 40.50792 -75.45943 35948 ft 329 kts 244°
2026-05-07 14:34 40.48424 -75.51083 35937 ft 328 kts 244°
2026-05-07 14:35 40.46070 -75.56187 35939 ft 328 kts 244°
2026-05-07 14:35 40.43713 -75.61286 35937 ft 328 kts 244°
2026-05-07 14:36 40.41358 -75.66371 35960 ft 328 kts 244°
2026-05-07 14:36 40.38985 -75.71488 35961 ft 328 kts 244°
2026-05-07 14:37 40.36689 -75.76428 35955 ft 327 kts 243°
2026-05-07 14:37 40.33205 -75.83911 35945 ft 327 kts 244°
2026-05-07 14:38 40.30825 -75.89016 35959 ft 327 kts 243°
2026-05-07 14:38 40.28460 -75.94081 35956 ft 325 kts 243°
2026-05-07 14:39 40.26099 -75.99128 35951 ft 327 kts 243°
2026-05-07 14:39 40.23719 -76.04205 35956 ft 328 kts 244°
2026-05-07 14:40 40.21354 -76.09244 35955 ft 327 kts 243°
2026-05-07 14:40 40.18973 -76.14310 35949 ft 327 kts 244°
2026-05-07 14:41 40.16595 -76.19360 35952 ft 326 kts 243°
2026-05-07 14:41 40.14224 -76.24384 35953 ft 327 kts 243°
2026-05-07 14:42 40.11851 -76.29416 35952 ft 326 kts 244°
2026-05-07 14:42 40.09513 -76.34495 35951 ft 326 kts 244°
2026-05-07 14:43 40.07184 -76.39548 35952 ft 327 kts 243°
2026-05-07 14:43 40.04843 -76.44613 35941 ft 326 kts 244°
2026-05-07 14:44 40.02506 -76.49666 35947 ft 327 kts 244°
2026-05-07 14:44 40.00155 -76.54739 35948 ft 326 kts 244°
2026-05-07 14:45 39.97814 -76.59781 35944 ft 326 kts 244°
2026-05-07 14:45 39.95477 -76.64808 35942 ft 327 kts 244°
2026-05-07 14:46 39.93112 -76.69887 35969 ft 327 kts 243°
2026-05-07 14:46 39.90916 -76.74592 35968 ft 326 kts 243°
2026-05-07 14:47 39.88615 -76.79522 35977 ft 327 kts 243°
2026-05-07 14:47 39.86245 -76.84586 35967 ft 328 kts 243°
2026-05-07 14:48 39.83868 -76.89658 35962 ft 326 kts 243°
2026-05-07 14:48 39.81750 -76.94170 35962 ft 327 kts 243°
2026-05-07 14:49 39.79354 -76.99268 35960 ft 329 kts 243°
2026-05-07 14:49 39.76975 -77.04321 35957 ft 328 kts 243°
2026-05-07 14:50 39.74793 -77.08947 35957 ft 329 kts 243°
2026-05-07 14:50 39.72407 -77.13997 35953 ft 329 kts 244°
2026-05-07 14:51 39.70219 -77.18623 35951 ft 328 kts 243°
2026-05-07 14:51 39.67834 -77.23659 35951 ft 327 kts 243°
2026-05-07 14:52 39.65612 -77.28342 35950 ft 328 kts 243°
2026-05-07 14:52 39.63208 -77.33400 35949 ft 328 kts 243°
2026-05-07 14:53 39.60939 -77.38166 35955 ft 326 kts 243°
2026-05-07 14:53 39.58536 -77.43205 35954 ft 326 kts 244°
2026-05-07 14:54 39.56155 -77.48194 35954 ft 327 kts 243°
2026-05-07 14:54 39.53756 -77.53209 35950 ft 326 kts 243°
2026-05-07 14:55 39.51373 -77.58186 35950 ft 328 kts 243°
2026-05-07 14:55 39.48969 -77.63196 35946 ft 328 kts 243°
2026-05-07 14:56 39.46602 -77.68117 35978 ft 328 kts 243°
2026-05-07 14:56 39.44186 -77.73141 35975 ft 329 kts 242°
2026-05-07 14:57 39.41902 -77.77878 35968 ft 327 kts 242°
2026-05-07 14:57 39.39424 -77.83009 35964 ft 327 kts 243°
2026-05-07 14:58 39.37270 -77.87847 35966 ft 325 kts 246°
2026-05-07 14:58 39.35254 -77.93047 35962 ft 324 kts 246°
2026-05-07 14:59 39.33212 -77.98241 35957 ft 323 kts 246°
2026-05-07 14:59 39.31166 -78.03416 35955 ft 324 kts 246°
2026-05-07 15:00 39.29116 -78.08573 35955 ft 325 kts 246°
2026-05-07 15:00 39.27061 -78.13732 35950 ft 325 kts 246°
2026-05-07 15:01 39.24992 -78.18916 35949 ft 324 kts 246°
2026-05-07 15:01 39.22939 -78.24045 35945 ft 324 kts 246°
2026-05-07 15:02 39.20877 -78.29192 35943 ft 323 kts 246°
2026-05-07 15:02 39.18822 -78.34311 35949 ft 323 kts 246°
2026-05-07 15:03 39.16752 -78.39460 35951 ft 323 kts 246°
2026-05-07 15:03 39.14701 -78.44550 35939 ft 322 kts 246°
2026-05-07 15:04 39.12639 -78.49658 35942 ft 323 kts 246°
2026-05-07 15:04 39.10567 -78.54781 35930 ft 321 kts 246°
2026-05-07 15:05 39.08502 -78.59884 35931 ft 323 kts 246°
2026-05-07 15:05 39.06431 -78.64991 35923 ft 323 kts 246°
2026-05-07 15:06 39.04368 -78.70069 35949 ft 322 kts 246°
2026-05-07 15:06 39.02420 -78.74855 35941 ft 323 kts 245°
2026-05-07 15:07 39.00345 -78.79945 35940 ft 321 kts 246°
2026-05-07 15:07 38.98389 -78.84738 35938 ft 323 kts 246°
2026-05-07 15:08 38.96291 -78.89871 35936 ft 326 kts 246°
2026-05-07 15:08 38.94243 -78.94867 35931 ft 324 kts 246°
2026-05-07 15:09 38.92148 -78.99973 35930 ft 325 kts 246°
2026-05-07 15:09 38.90034 -79.05119 35929 ft 326 kts 246°
2026-05-07 15:10 38.87917 -79.10261 35932 ft 326 kts 246°
2026-05-07 15:10 38.85889 -79.15176 35931 ft 326 kts 246°
2026-05-07 15:11 38.83974 -79.20427 35937 ft 325 kts 255°
2026-05-07 15:11 38.83047 -79.25437 35929 ft 326 kts 256°
2026-05-07 15:12 38.82018 -79.31059 35923 ft 325 kts 256°
2026-05-07 15:12 38.81000 -79.36670 35916 ft 326 kts 256°
2026-05-07 15:13 38.80002 -79.42173 35921 ft 326 kts 256°
2026-05-07 15:13 38.79088 -79.47212 35903 ft 326 kts 256°
2026-05-07 15:14 38.78063 -79.52863 35907 ft 327 kts 256°
2026-05-07 15:14 38.77035 -79.58503 35908 ft 327 kts 256°
2026-05-07 15:15 38.76001 -79.64172 35913 ft 326 kts 257°
2026-05-07 15:15 38.74978 -79.69763 35945 ft 328 kts 256°
2026-05-07 15:16 38.73940 -79.75423 35953 ft 327 kts 256°
2026-05-07 15:16 38.73007 -79.80493 35958 ft 328 kts 256°
2026-05-07 15:17 38.71994 -79.85983 35952 ft 328 kts 256°
2026-05-07 15:17 38.70947 -79.91645 35945 ft 327 kts 256°
2026-05-07 15:18 38.69942 -79.97053 35954 ft 328 kts 256°
2026-05-07 15:18 38.68884 -80.02745 35940 ft 328 kts 256°
2026-05-07 15:19 38.67826 -80.08418 35941 ft 328 kts 255°
2026-05-07 15:19 38.66763 -80.14100 35942 ft 328 kts 256°
2026-05-07 15:20 38.65702 -80.19751 35945 ft 329 kts 256°
2026-05-07 15:20 38.64640 -80.25383 35946 ft 327 kts 256°
2026-05-07 15:21 38.63569 -80.31062 35946 ft 329 kts 256°
2026-05-07 15:21 38.62499 -80.36713 35948 ft 328 kts 256°
2026-05-07 15:22 38.61424 -80.42374 35947 ft 328 kts 257°
2026-05-07 15:22 38.60351 -80.48010 35945 ft 328 kts 256°
2026-05-07 15:23 38.59274 -80.53645 35942 ft 328 kts 256°
2026-05-07 15:23 38.58190 -80.59312 35936 ft 328 kts 256°
2026-05-07 15:24 38.57106 -80.64956 35944 ft 329 kts 256°
2026-05-07 15:24 38.56014 -80.70622 35972 ft 329 kts 256°
2026-05-07 15:25 38.54960 -80.76083 35976 ft 328 kts 256°
2026-05-07 15:25 38.53872 -80.81701 35978 ft 330 kts 256°
2026-05-07 15:26 38.52795 -80.87250 35974 ft 328 kts 256°
2026-05-07 15:26 38.51775 -80.92489 35973 ft 327 kts 255°
2026-05-07 15:27 38.50705 -80.97967 35971 ft 328 kts 256°
2026-05-07 15:27 38.49599 -81.03621 35973 ft 329 kts 256°
2026-05-07 15:28 38.48492 -81.09261 35977 ft 328 kts 256°
2026-05-07 15:28 38.47387 -81.14874 35967 ft 329 kts 256°
2026-05-07 15:29 38.46267 -81.20548 35974 ft 328 kts 256°
2026-05-07 15:29 38.45157 -81.26161 35976 ft 328 kts 256°
2026-05-07 15:30 38.44041 -81.31779 35973 ft 329 kts 256°
2026-05-07 15:30 38.42920 -81.37419 35975 ft 328 kts 255°
2026-05-07 15:31 38.41802 -81.43024 35970 ft 327 kts 256°
2026-05-07 15:31 38.40678 -81.48639 35969 ft 327 kts 256°
2026-05-07 15:32 38.39552 -81.54256 35973 ft 328 kts 256°
2026-05-07 15:32 38.38420 -81.59881 35977 ft 327 kts 256°
2026-05-07 15:33 38.37295 -81.65461 35975 ft 327 kts 256°
2026-05-07 15:33 38.36181 -81.70968 35994 ft 328 kts 256°
2026-05-07 15:34 38.35031 -81.76571 35994 ft 327 kts 254°
2026-05-07 15:34 38.33693 -81.81458 36001 ft 327 kts 252°
2026-05-07 15:35 38.32165 -81.86966 35998 ft 328 kts 252°
2026-05-07 15:35 38.30707 -81.92191 35995 ft 328 kts 252°
2026-05-07 15:36 38.29169 -81.97675 35989 ft 327 kts 252°
2026-05-07 15:36 38.27637 -82.03133 35975 ft 327 kts 252°
2026-05-07 15:37 38.26108 -82.08566 35979 ft 328 kts 252°
2026-05-07 15:37 38.24575 -82.13997 35979 ft 326 kts 253°
2026-05-07 15:38 38.23037 -82.19436 35972 ft 329 kts 252°
2026-05-07 15:38 38.21498 -82.24863 35968 ft 326 kts 252°
2026-05-07 15:39 38.19957 -82.30293 35971 ft 327 kts 253°
2026-05-07 15:39 38.18416 -82.35706 35971 ft 326 kts 252°
2026-05-07 15:40 38.16878 -82.41097 35976 ft 326 kts 252°
2026-05-07 15:40 38.15329 -82.46517 35978 ft 327 kts 253°
2026-05-07 15:41 38.13779 -82.51928 35969 ft 326 kts 252°
2026-05-07 15:41 38.12225 -82.57340 35976 ft 326 kts 252°
2026-05-07 15:42 38.10676 -82.62728 35969 ft 327 kts 253°
2026-05-07 15:42 38.09117 -82.68134 35997 ft 327 kts 252°
2026-05-07 15:43 38.07560 -82.73533 35997 ft 326 kts 252°
2026-05-07 15:43 38.06111 -82.78539 35989 ft 327 kts 253°
2026-05-07 15:44 38.04536 -82.83974 35985 ft 329 kts 252°
2026-05-07 15:44 38.03079 -82.88990 35978 ft 328 kts 252°
2026-05-07 15:45 38.01510 -82.94382 35966 ft 327 kts 252°
2026-05-07 15:45 38.00099 -82.99220 35977 ft 328 kts 252°
2026-05-07 15:46 37.97775 -83.07175 35977 ft 327 kts 252°
2026-05-07 15:47 37.96191 -83.12581 35969 ft 328 kts 253°
2026-05-07 15:47 37.94607 -83.17976 35970 ft 328 kts 253°
2026-05-07 15:48 37.93020 -83.23376 35966 ft 328 kts 252°
2026-05-07 15:48 37.91428 -83.28780 35968 ft 328 kts 252°
2026-05-07 15:49 37.89834 -83.34179 35970 ft 328 kts 252°
2026-05-07 15:49 37.88236 -83.39575 35978 ft 326 kts 252°
2026-05-07 15:50 37.86676 -83.44840 35970 ft 329 kts 253°
2026-05-07 15:50 37.85066 -83.50259 35974 ft 327 kts 252°
2026-05-07 15:51 37.83462 -83.55652 35972 ft 328 kts 252°
2026-05-07 15:51 37.81921 -83.60818 35975 ft 329 kts 252°
2026-05-07 15:52 37.80349 -83.66079 35988 ft 329 kts 252°
2026-05-07 15:52 37.78730 -83.71488 36002 ft 329 kts 252°
2026-05-07 15:53 37.77111 -83.76891 36008 ft 329 kts 252°
2026-05-07 15:53 37.75596 -83.81928 36006 ft 329 kts 251°
2026-05-07 15:54 37.73983 -83.87289 36015 ft 329 kts 252°
2026-05-07 15:54 37.72426 -83.92448 36013 ft 329 kts 252°
2026-05-07 15:55 37.70792 -83.97855 36014 ft 330 kts 252°
2026-05-07 15:55 37.69164 -84.03233 36019 ft 329 kts 252°
2026-05-07 15:56 37.67532 -84.08610 36009 ft 328 kts 252°
2026-05-07 15:56 37.65908 -84.13959 36016 ft 329 kts 252°
2026-05-07 15:57 37.64263 -84.19340 36020 ft 329 kts 252°
2026-05-07 15:57 37.62620 -84.24713 36018 ft 329 kts 252°
2026-05-07 15:58 37.60974 -84.30078 36029 ft 329 kts 252°
2026-05-07 15:58 37.59331 -84.35429 36025 ft 328 kts 252°
2026-05-07 15:59 37.57689 -84.40763 36024 ft 329 kts 252°
2026-05-07 15:59 37.56033 -84.46130 36015 ft 328 kts 252°
2026-05-07 16:00 37.54383 -84.51472 36012 ft 329 kts 252°
2026-05-07 16:00 37.52717 -84.56853 36011 ft 329 kts 252°
2026-05-07 16:01 37.51058 -84.62202 36014 ft 329 kts 252°
2026-05-07 16:01 37.49400 -84.67536 36050 ft 329 kts 252°
2026-05-07 16:02 37.47734 -84.72895 36047 ft 329 kts 251°
2026-05-07 16:02 37.46138 -84.78056 36048 ft 328 kts 251°
2026-05-07 16:03 37.44479 -84.83408 36042 ft 330 kts 252°
2026-05-07 16:03 37.42823 -84.88737 36035 ft 328 kts 252°
2026-05-07 16:04 37.41196 -84.93966 36031 ft 330 kts 252°
2026-05-07 16:04 37.39523 -84.99332 36030 ft 328 kts 252°
2026-05-07 16:05 37.37859 -85.04652 36038 ft 329 kts 251°
2026-05-07 16:05 37.36181 -85.09983 36038 ft 329 kts 252°
2026-05-07 16:06 37.34498 -85.15325 36046 ft 329 kts 251°
2026-05-07 16:06 37.32824 -85.20624 36051 ft 328 kts 252°
2026-05-07 16:07 37.31144 -85.25940 36047 ft 328 kts 252°
2026-05-07 16:07 37.29452 -85.31280 36049 ft 329 kts 251°
2026-05-07 16:08 37.27764 -85.36597 36042 ft 328 kts 252°
2026-05-07 16:08 37.26083 -85.41878 36039 ft 329 kts 252°
2026-05-07 16:09 37.24382 -85.47220 36029 ft 329 kts 252°
2026-05-07 16:09 37.22681 -85.52549 36023 ft 330 kts 251°
2026-05-07 16:10 37.20987 -85.57845 36021 ft 328 kts 252°
2026-05-07 16:10 37.19286 -85.63153 36013 ft 329 kts 252°
2026-05-07 16:11 37.17589 -85.68438 36045 ft 330 kts 251°
2026-05-07 16:11 37.15877 -85.73761 36044 ft 329 kts 252°
2026-05-07 16:12 37.14172 -85.79057 36045 ft 328 kts 251°
2026-05-07 16:12 37.12470 -85.84331 36050 ft 328 kts 251°
2026-05-07 16:13 37.10739 -85.89682 36051 ft 329 kts 251°
2026-05-07 16:13 37.09032 -85.94951 36053 ft 329 kts 252°
2026-05-07 16:14 37.07316 -86.00236 36052 ft 328 kts 252°
2026-05-07 16:14 37.05594 -86.05533 36054 ft 329 kts 252°
2026-05-07 16:15 37.03880 -86.10799 36049 ft 327 kts 252°
2026-05-07 16:15 37.02164 -86.16057 36050 ft 329 kts 252°
2026-05-07 16:16 37.00431 -86.21356 36052 ft 329 kts 251°
2026-05-07 16:16 36.98710 -86.26611 36045 ft 327 kts 251°
2026-05-07 16:17 36.96989 -86.31854 36047 ft 328 kts 252°
2026-05-07 16:17 36.95253 -86.37139 36053 ft 329 kts 252°
2026-05-07 16:18 36.93513 -86.42425 36050 ft 328 kts 251°
2026-05-07 16:18 36.91459 -86.47502 36048 ft 331 kts 247°
2026-05-07 16:19 36.89246 -86.52583 36045 ft 333 kts 248°
2026-05-07 16:19 36.87028 -86.57644 36041 ft 332 kts 248°
2026-05-07 16:20 36.84865 -86.62563 36037 ft 332 kts 248°
2026-05-07 16:20 36.82643 -86.67602 36070 ft 334 kts 247°
2026-05-07 16:21 36.80388 -86.72712 36060 ft 333 kts 247°
2026-05-07 16:21 36.78159 -86.77750 36061 ft 333 kts 246°
2026-05-07 16:22 36.75924 -86.82790 36059 ft 334 kts 247°
2026-05-07 16:22 36.73684 -86.87835 36062 ft 334 kts 248°
2026-05-07 16:23 36.71424 -86.92921 36046 ft 334 kts 247°
2026-05-07 16:23 36.69164 -86.97999 36055 ft 335 kts 247°
2026-05-07 16:24 36.66900 -87.03075 36051 ft 336 kts 248°
2026-05-07 16:24 36.64630 -87.08154 36053 ft 335 kts 248°
2026-05-07 16:25 36.62365 -87.13222 36053 ft 337 kts 247°
2026-05-07 16:25 36.60095 -87.18285 36051 ft 335 kts 248°
2026-05-07 16:26 36.57836 -87.23322 36057 ft 335 kts 247°
2026-05-07 16:26 36.55558 -87.28391 36063 ft 335 kts 247°
2026-05-07 16:27 36.53279 -87.33453 36068 ft 336 kts 247°
2026-05-07 16:27 36.51008 -87.38493 36068 ft 336 kts 247°
2026-05-07 16:28 36.48730 -87.43539 36065 ft 335 kts 248°
2026-05-07 16:28 36.46438 -87.48608 36065 ft 337 kts 248°
2026-05-07 16:29 36.44158 -87.53641 36059 ft 334 kts 248°
2026-05-07 16:29 36.41891 -87.58641 36045 ft 336 kts 248°
2026-05-07 16:30 36.39609 -87.63663 36046 ft 334 kts 248°
2026-05-07 16:30 36.37317 -87.68706 36075 ft 337 kts 247°
2026-05-07 16:31 36.35022 -87.73740 36069 ft 335 kts 246°
2026-05-07 16:31 36.32762 -87.78695 36073 ft 336 kts 247°
2026-05-07 16:32 36.30462 -87.83733 36070 ft 337 kts 247°
2026-05-07 16:32 36.28158 -87.88765 36067 ft 335 kts 247°
2026-05-07 16:33 36.25857 -87.93788 36064 ft 335 kts 248°
2026-05-07 16:33 36.23553 -87.98811 36060 ft 337 kts 247°
2026-05-07 16:34 36.21236 -88.03848 36063 ft 336 kts 248°
2026-05-07 16:34 36.18935 -88.08848 36064 ft 338 kts 248°
2026-05-07 16:35 36.16611 -88.13889 36053 ft 335 kts 248°
2026-05-07 16:35 36.14296 -88.18907 36061 ft 337 kts 247°
2026-05-07 16:36 36.11992 -88.23887 36060 ft 336 kts 248°
2026-05-07 16:36 36.09670 -88.28903 35990 ft 337 kts 247°
2026-05-07 16:36 36.08496 -88.31436 35680 ft 339 kts 247°
2026-05-07 16:37 36.07329 -88.33955 35063 ft 343 kts 247°
2026-05-07 16:37 36.06142 -88.36510 34399 ft 341 kts 247°
2026-05-07 16:37 36.04969 -88.39033 33908 ft 337 kts 246°
2026-05-07 16:37 36.03805 -88.41533 33415 ft 337 kts 247°
2026-05-07 16:38 36.02647 -88.44029 32955 ft 341 kts 246°
2026-05-07 16:38 36.01452 -88.46594 32494 ft 346 kts 246°
2026-05-07 16:38 36.00262 -88.49149 32027 ft 347 kts 246°
2026-05-07 16:38 35.99049 -88.51749 31567 ft 348 kts 246°
2026-05-07 16:39 35.97841 -88.54337 31101 ft 350 kts 246°
2026-05-07 16:39 35.96622 -88.56949 30625 ft 352 kts 246°
2026-05-07 16:39 35.95413 -88.59535 30140 ft 354 kts 246°
2026-05-07 16:39 35.94182 -88.62167 29641 ft 356 kts 245°
2026-05-07 16:40 35.92952 -88.64787 29133 ft 349 kts 246°
2026-05-07 16:40 35.91750 -88.67344 28712 ft 339 kts 245°
2026-05-07 16:40 35.90581 -88.69840 28340 ft 338 kts 245°
2026-05-07 16:40 35.89405 -88.72352 27973 ft 344 kts 245°
2026-05-07 16:41 35.88211 -88.74899 27557 ft 346 kts 245°
2026-05-07 16:41 35.87002 -88.77469 27109 ft 345 kts 245°
2026-05-07 16:41 35.85899 -88.79816 26714 ft 343 kts 245°
2026-05-07 16:41 35.84695 -88.82372 26283 ft 343 kts 245°
2026-05-07 16:42 35.83488 -88.84938 25858 ft 346 kts 245°
2026-05-07 16:42 35.82291 -88.87479 25407 ft 347 kts 245°
2026-05-07 16:42 35.81074 -88.90059 24923 ft 345 kts 245°
2026-05-07 16:42 35.79958 -88.92421 24510 ft 343 kts 245°
2026-05-07 16:43 35.78759 -88.94961 24089 ft 343 kts 245°
2026-05-07 16:43 35.77681 -88.97243 23708 ft 346 kts 245°
2026-05-07 16:43 35.76472 -88.99801 23199 ft 347 kts 244°
2026-05-07 16:43 35.75261 -89.02356 22702 ft 344 kts 245°
2026-05-07 16:44 35.74065 -89.04881 22386 ft 341 kts 244°
2026-05-07 16:44 35.72722 -89.07298 22160 ft 346 kts 236°
2026-05-07 16:44 35.71073 -89.09506 21683 ft 357 kts 234°
2026-05-07 16:44 35.69874 -89.11078 21250 ft 356 kts 234°
2026-05-07 16:45 35.68188 -89.13275 20653 ft 348 kts 233°
2026-05-07 16:45 35.66549 -89.15404 20225 ft 339 kts 233°
2026-05-07 16:45 35.64922 -89.17517 19943 ft 341 kts 233°
2026-05-07 16:45 35.63558 -89.19290 19494 ft 351 kts 233°
2026-05-07 16:46 35.61884 -89.21450 19113 ft 340 kts 233°
2026-05-07 16:46 35.60291 -89.23499 19125 ft 333 kts 233°
2026-05-07 16:46 35.58641 -89.25635 18746 ft 356 kts 233°
2026-05-07 16:46 35.56935 -89.27824 18014 ft 352 kts 233°
2026-05-07 16:47 35.55264 -89.29961 17376 ft 345 kts 233°
2026-05-07 16:47 35.53630 -89.32050 16878 ft 337 kts 233°
2026-05-07 16:47 35.52039 -89.34086 16382 ft 329 kts 233°
2026-05-07 16:47 35.50456 -89.36114 15877 ft 323 kts 233°
2026-05-07 16:48 35.48929 -89.38072 15380 ft 317 kts 233°
2026-05-07 16:48 35.47425 -89.39998 14885 ft 312 kts 233°
2026-05-07 16:48 35.45935 -89.41908 14388 ft 307 kts 233°
2026-05-07 16:48 35.44473 -89.43780 13884 ft 303 kts 233°
2026-05-07 16:49 35.43037 -89.45614 13422 ft 291 kts 233°
2026-05-07 16:49 35.41664 -89.47367 13040 ft 280 kts 233°
2026-05-07 16:49 35.40344 -89.49054 12740 ft 271 kts 234°
2026-05-07 16:49 35.39034 -89.50733 12486 ft 274 kts 234°
2026-05-07 16:50 35.37707 -89.52432 12236 ft 277 kts 233°
2026-05-07 16:50 35.36374 -89.54133 11982 ft 278 kts 234°
2026-05-07 16:50 35.35041 -89.55833 11728 ft 276 kts 234°
2026-05-07 16:50 35.33709 -89.57530 11464 ft 275 kts 234°
2026-05-07 16:51 35.32389 -89.59213 11212 ft 276 kts 233°
2026-05-07 16:51 35.31054 -89.60912 10951 ft 275 kts 234°
2026-05-07 16:51 35.29742 -89.62581 10689 ft 273 kts 234°
2026-05-07 16:51 35.28417 -89.64267 10425 ft 275 kts 233°
2026-05-07 16:52 35.27086 -89.65962 10180 ft 275 kts 233°
2026-05-07 16:52 35.25762 -89.67641 9941 ft 274 kts 233°
2026-05-07 16:52 35.24500 -89.69244 9710 ft 274 kts 233°
2026-05-07 16:52 35.23164 -89.70942 9466 ft 275 kts 232°
2026-05-07 16:53 35.21982 -89.72442 9251 ft 274 kts 232°
2026-05-07 16:53 35.20658 -89.74120 9009 ft 275 kts 232°
2026-05-07 16:53 35.19322 -89.75816 8763 ft 274 kts 232°
2026-05-07 16:53 35.18095 -89.77365 8525 ft 265 kts 232°
2026-05-07 16:54 35.16926 -89.78844 8294 ft 261 kts 232°
2026-05-07 16:54 35.15673 -89.80434 8054 ft 266 kts 231°
2026-05-07 16:54 35.14382 -89.82070 7810 ft 268 kts 231°
2026-05-07 16:54 35.13088 -89.83705 7557 ft 263 kts 231°
2026-05-07 16:55 35.11813 -89.85284 7299 ft 259 kts 226°
2026-05-07 16:55 35.10233 -89.86312 7073 ft 264 kts 197°
2026-05-07 16:55 35.08403 -89.86481 6855 ft 263 kts 185°
2026-05-07 16:55 35.06591 -89.86501 6605 ft 259 kts 185°
2026-05-07 16:56 35.04799 -89.86513 6353 ft 255 kts 184°
2026-05-07 16:56 35.03035 -89.86510 6111 ft 252 kts 183°
2026-05-07 16:56 34.99562 -89.86482 5606 ft 246 kts 182°
2026-05-07 16:57 34.97853 -89.86464 5355 ft 244 kts 182°
2026-05-07 16:57 34.96174 -89.86445 5106 ft 242 kts 181°
2026-05-07 16:57 34.94492 -89.86425 4856 ft 240 kts 181°
2026-05-07 16:57 34.92830 -89.86404 4609 ft 238 kts 181°
2026-05-07 16:58 34.91181 -89.86384 4359 ft 235 kts 180°
2026-05-07 16:58 34.89556 -89.86364 4103 ft 230 kts 180°
2026-05-07 16:58 34.87949 -89.86344 3856 ft 233 kts 180°
2026-05-07 16:58 34.86292 -89.86324 3609 ft 237 kts 179°
2026-05-07 16:59 34.84709 -89.86283 3363 ft 236 kts 178°
2026-05-07 16:59 34.83209 -89.86237 3130 ft 234 kts 177°
2026-05-07 16:59 34.81585 -89.86422 2880 ft 233 kts 201°
2026-05-07 16:59 34.80283 -89.87540 2680 ft 231 kts 236°
2026-05-07 17:00 34.79702 -89.89320 2557 ft 225 kts 268°
2026-05-07 17:00 34.79844 -89.90860 2466 ft 220 kts 296°
2026-05-07 17:00 34.80755 -89.92300 2371 ft 215 kts 324°
2026-05-07 17:00 34.81967 -89.93354 2231 ft 212 kts 328°
2026-05-07 17:01 34.83158 -89.94347 2119 ft 203 kts 327°
2026-05-07 17:01 34.84305 -89.95306 1977 ft 195 kts 328°
2026-05-07 17:01 34.85412 -89.96171 1955 ft 178 kts 336°
2026-05-07 17:01 34.86560 -89.96631 1808 ft 173 kts 350°
2026-05-07 17:02 34.87777 -89.96839 1713 ft 179 kts 356°
2026-05-07 17:02 34.89011 -89.96927 1734 ft 174 kts 357°
2026-05-07 17:02 34.90209 -89.97031 1720 ft 172 kts 358°
2026-05-07 17:02 34.91381 -89.97096 1768 ft 157 kts
2026-05-07 17:03 34.92450 -89.97121 1732 ft 151 kts
2026-05-07 17:03 34.93477 -89.97113 1723 ft 142 kts
2026-05-07 17:03 34.94413 -89.97128 1741 ft 131 kts
2026-05-07 17:03 34.95326 -89.97128 1607 ft 131 kts
2026-05-07 17:04 34.96261 -89.97130 1509 ft 135 kts
2026-05-07 17:04 34.97209 -89.97164 1416 ft 137 kts 360°
2026-05-07 17:04 34.98157 -89.97207 1295 ft 135 kts
2026-05-07 17:04 34.99097 -89.97225 1088 ft 134 kts
2026-05-07 17:05 35.00036 -89.97225 906 ft 135 kts
2026-05-07 17:05 35.00976 -89.97229 696 ft 135 kts
2026-05-07 17:05 35.01907 -89.97240 480 ft 133 kts
2026-05-07 17:05 35.02838 -89.97252 347 ft 130 kts 359°
2026-05-07 17:06 35.03519 -89.97266 347 ft 69 kts 359°
2026-05-07 17:06 35.03883 -89.97276 346 ft 43 kts 356°
2026-05-07 17:06 35.04114 -89.97353 346 ft 28 kts 323°
2026-05-07 17:06 35.04228 -89.97450 346 ft 15 kts 345°
2026-05-07 17:07 35.04345 -89.97459 346 ft 19 kts 359°
2026-05-07 17:07 35.04496 -89.97463 346 ft 22 kts 359°
2026-05-07 17:07 35.04652 -89.97465 346 ft 22 kts 359°
2026-05-07 17:07 35.04805 -89.97469 346 ft 22 kts 359°
2026-05-07 17:08 35.04958 -89.97472 346 ft 22 kts 359°
2026-05-07 17:08 35.05111 -89.97476 346 ft 21 kts 358°
2026-05-07 17:08 35.05262 -89.97479 346 ft 21 kts 360°
2026-05-07 17:08 35.05413 -89.97482 346 ft 21 kts 359°
2026-05-07 17:09 35.05564 -89.97485 346 ft 21 kts 359°
2026-05-07 17:09 35.05712 -89.97485 346 ft 21 kts
2026-05-07 17:09 35.05854 -89.97488 346 ft 19 kts 346°
2026-05-07 17:09 35.05981 -89.97533 346 ft 17 kts 346°
2026-05-07 17:10 35.06102 -89.97541 346 ft 17 kts
2026-05-07 17:10 35.06224 -89.97541 346 ft 17 kts 359°
2026-05-07 17:10 35.06332 -89.97542 346 ft 11 kts
2026-05-07 17:10 35.06382 -89.97503 346 ft 7 kts 69°
2026-05-07 17:11 35.06384 -89.97446 346 ft 10 kts 90°
2026-05-07 17:11 35.06385 -89.97343 346 ft 9 kts 90°
2026-05-07 17:11 35.06399 -89.97307 346 ft 3 kts 11°
2026-05-07 17:11 35.06436 -89.97308 346 ft 2 kts 359°
2026-05-07 17:12 35.06442 -89.97308 346 ft 0 kts 359°